User: anonymous   Login
Location: Helsinki
(60.1699°N, 24.9384°E)
Time: 22:23:38
(UTC+02:00)
Language:

Tiros 1 - Orbit

View from above orbital plane
View from above orbital plane
View from above satellite
View from above satellite

Ground track
Ground track

The orbit data is extracted from the following two-line orbital elements,

1    29U 60002B   20301.61987473 -.00000102 +00000-0 +15888-4 0  9998
2    29 048.3810 044.8726 0023507 078.0559 282.2987 14.74378958238163
Epoch (UTC): 27 October 2020 14:52:37
Eccentricity: 0.0023507
inclination: 48.3810°
perigee height: 630 km
apogee height: 663 km
right ascension of ascending node: 44.8726°
argument of perigee: 78.0559°
revolutions per day: 14.74378958
mean anomaly at epoch: 282.2987°
orbit number at epoch: 23816

The dashed part of the orbit path shows where the satellite is in the earth's shadow,  

DLR